Location: Morlupo
(42.1333°N, 12.5000°E)
Time: 16:22:25
(UTC+00:00)

Cosmos 1833 Rocket - Pass Details

Date: 18 September 2020
Orbit: 831 x 841 km, 71.0° (Epoch: 25 October)

Event Time Altitude Azimuth Distance (km) Brightness Sun altitude
Rises 20:01:24 0° 342° (NNW) 3,405 6.6 -30.1°
Reaches altitude 10° 20:04:05 10° 351° (N) 2,467 5.6 -30.5°
Enters shadow 20:07:25 28° 21° (NNE) 1,525 4.1 -31.0°
